User: anonymous   Login
Location: Plymouth
(43.7570°N, 71.6890°W)
Time: 08:20:11
(UTC-04:00)
Language:

Meteor 1-28 Rocket - Orbit

View from above orbital plane
View from above orbital plane
View from above satellite
View from above satellite

Ground track
Ground track

The orbit data is extracted from the following two-line orbital elements,

1 10114U 77057B   17293.88949606 +.00000484 +00000-0 +27782-4 0  9991
2 10114 097.2055 109.9216 0012549 236.2043 123.7997 15.16853907202407
Epoch (UTC): 20 October 2017 21:20:52
Eccentricity: 0.0012549
inclination: 97.2055°
perigee height: 507 km
apogee height: 524 km
right ascension of ascending node: 109.9216°
argument of perigee: 236.2043°
revolutions per day: 15.16853907
mean anomaly at epoch: 123.7997°
orbit number at epoch: 20240

The dashed part of the orbit path shows where the satellite is in the earth's shadow,  

DLR